DW9918 Weather Reports


Display with metric or nautical units.
time (UTC)temp
F
wind
direction
speed
MPH
gust
MPH
rain 1hr
in
rain 24hr
in
rain mn
in
humidity
%
barometer
mb
20260901203128 76 40 0.0 0.0 0.00 0.00 0.00 80 1017.7
20260901203011 76 40 0.0 1.0 0.00 0.00 0.00 80 1017.5
20260901202131 77 40 0.0 2.0 0.00 0.00 0.00 79 1017.4
20260901201508 77 49 0.0 0.0 0.00 0.00 0.00 79 1017.4
20260901201139 77 50 0.0 0.0 0.00 0.00 0.00 79 1017.5
20260901200136 78 51 0.0 1.0 0.00 0.00 0.00 78 1017.5
20260901200031 77 51 0.0 1.0 0.00 0.00 0.00 78 1017.4
20260901195139 78 50 0.0 1.0 0.00 0.00 0.00 78 1017.5
20260901194529 77 91 0.0 0.0 0.00 0.00 0.00 77 1017.4
20260901194210 78 91 0.0 0.0 0.00 0.00 0.00 77 1017.5
20260901193156 78 91 0.0 0.0 0.00 0.00 0.00 77 1017.5
20260901193026 78 91 0.0 0.0 0.00 0.00 0.00 76 1017.4
20260901192138 78 91 0.0 2.0 0.00 0.00 0.00 77 1017.5
20260901191520 78 93 0.0 1.0 0.00 0.00 0.00 76 1017.3
20260901191151 79 93 0.0 1.0 0.00 0.00 0.00 76 1017.4
20260901190154 79 94 0.0 0.0 0.00 0.00 0.00 75 1017.2
20260901190018 78 93 0.0 0.0 0.00 0.00 0.00 75 1017.1
20260901185133 79 93 0.0 1.0 0.00 0.00 0.00 75 1017.2
20260901184542 79 94 0.0 3.0 0.00 0.00 0.00 74 1016.9
20260901184133 80 86 1.0 3.0 0.00 0.00 0.00 74 1016.9
20260901183142 80 84 2.0 4.0 0.00 0.00 0.00 74 1017.0
20260901183034 79 89 3.0 4.0 0.00 0.00 0.00 73 1016.9
20260901182125 79 84 2.0 3.0 0.00 0.00 0.00 73 1017.0
20260901181533 79 88 2.0 5.0 0.00 0.00 0.00 72 1016.8
20260901181131 80 94 3.0 6.0 0.00 0.00 0.00 72 1016.9
20260901180130 80 90 4.0 7.0 0.00 0.00 0.00 71 1016.8
20260901180026 80 98 5.0 7.0 0.00 0.00 0.00 71 1016.6
20260901175134 80 86 4.0 6.0 0.00 0.00 0.00 71 1016.8
20260901174526 80 92 4.0 7.0 0.00 0.00 0.00 70 1016.6
20260901174135 81 91 4.0 7.0 0.00 0.00 0.00 70 1016.7
20260901173141 81 88 6.0 9.0 0.00 0.00 0.00 69 1016.7
20260901173021 80 102 6.0 8.0 0.00 0.00 0.00 69 1016.6
20260901172130 81 79 6.0 8.0 0.00 0.00 0.00 69 1016.7
20260901171516 81 87 6.0 10.0 0.00 0.00 0.00 68 1016.6
20260901171150 81 91 6.0 10.0 0.00 0.00 0.00 68 1016.7
20260901170213 82 93 7.0 10.0 0.00 0.00 0.00 67 1016.7
20260901170012 81 98 8.0 9.0 0.00 0.00 0.00 66 1016.6
20260901165140 82 89 8.0 11.0 0.00 0.00 0.00 66 1016.7
20260901164509 82 89 7.0 12.0 0.00 0.00 0.00 65 1016.7
20260901164125 83 82 7.0 12.0 0.00 0.00 0.00 66 1016.8
20260901163156 83 96 8.0 11.0 0.00 0.00 0.00 65 1016.9
20260901163012 83 89 7.0 13.0 0.00 0.00 0.00 66 1016.8
20260901162137 83 85 8.0 13.0 0.00 0.00 0.00 66 1016.8
20260901161503 83 81 8.0 11.0 0.00 0.00 0.00 64 1016.9
20260901161126 84 84 7.0 10.0 0.00 0.00 0.00 65 1016.9
20260901160137 84 89 9.0 11.0 0.00 0.00 0.00 63 1016.9
20260901160025 83 91 7.0 11.0 0.00 0.00 0.00 64 1016.9
20260901155128 84 93 8.0 14.0 0.00 0.00 0.00 63 1016.8
20260901154519 83 79 10.0 14.0 0.00 0.00 0.00 64 1017.0
20260901154128 84 82 9.0 14.0 0.00 0.00 0.00 63 1016.9
20260901153133 84 88 6.0 15.0 0.00 0.00 0.00 61 1016.9
20260901153015 83 101 6.0 15.0 0.00 0.00 0.00 58 1017.0
20260901152143 84 44 8.0 14.0 0.00 0.00 0.00 62 1016.9
20260901151514 84 94 6.0 13.0 0.00 0.00 0.00 64 1016.9
20260901151132 84 31 8.0 13.0 0.00 0.00 0.00 63 1017.0
20260901150130 84 75 10.0 16.0 0.00 0.00 0.00 65 1017.0
20260901150012 84 94 7.0 16.0 0.00 0.00 0.00 63 1016.9
20260901145131 84 81 8.0 14.0 0.00 0.00 0.00 64 1017.0
20260901144504 83 69 7.0 18.0 0.00 0.00 0.00 64 1016.9
20260901144132 84 93 11.0 18.0 0.00 0.00 0.00 64 1016.9
20260901143152 84 49 10.0 17.0 0.00 0.00 0.00 65 1017.0
20260901143027 84 91 11.0 17.0 0.00 0.00 0.00 63 1017.0
20260901142141 85 32 7.0 15.0 0.00 0.00 0.00 65 1017.0
20260901141534 84 81 7.0 17.0 0.00 0.00 0.00 62 1017.1
20260901141126 84 53 7.0 17.0 0.00 0.00 0.00 65 1017.1
20260901140155 84 56 9.0 16.0 0.00 0.00 0.00 63 1017.1
20260901140020 84 72 10.0 17.0 0.00 0.00 0.00 63 1017.1
20260901135128 84 91 9.0 20.0 0.00 0.00 0.00 66 1017.0
20260901134516 84 79 7.0 16.0 0.00 0.00 0.00 65 1017.1
20260901134130 84 60 11.0 16.0 0.00 0.00 0.00 66 1017.1
20260901133129 84 49 8.0 20.0 0.00 0.00 0.00 67 1017.2
20260901133013 83 81 10.0 20.0 0.00 0.00 0.00 66 1017.1
20260901132131 84 94 12.0 18.0 0.00 0.00 0.00 66 1017.2
20260901131508 83 91 12.0 20.0 0.00 0.00 0.00 66 1017.2
20260901131133 84 39 13.0 20.0 0.00 0.00 0.00 67 1017.2
20260901130140 84 105 11.0 20.0 0.00 0.00 0.00 68 1017.3
20260901130028 83 97 11.0 20.0 0.00 0.00 0.00 68 1017.3
20260901125136 84 68 9.0 20.0 0.00 0.00 0.00 69 1017.3
20260901124527 83 94 14.0 20.0 0.00 0.00 0.00 66 1017.2
20260901124148 84 63 10.0 18.0 0.00 0.00 0.00 69 1017.3
20260901123130 84 44 10.0 22.0 0.00 0.00 0.00 69 1017.3
20260901123033 83 34 12.0 22.0 0.00 0.00 0.00 68 1017.2
20260901122131 84 76 15.0 20.0 0.00 0.00 0.00 68 1017.4
20260901121519 84 82 15.0 20.0 0.00 0.00 0.00 68 1017.5
20260901121132 85 83 11.0 18.0 0.00 0.00 0.00 68 1017.5
20260901120130 85 75 11.0 18.0 0.00 0.00 0.00 68 1017.5
20260901120016 84 88 12.0 18.0 0.00 0.00 0.00 66 1017.5
20260901115138 84 86 11.0 18.0 0.00 0.00 0.00 69 1017.6
20260901114517 84 110 10.0 18.0 0.00 0.00 0.00 69 1017.5
20260901114153 84 88 12.0 18.0 0.00 0.00 0.00 69 1017.6
20260901113131 84 85 13.0 16.0 0.00 0.00 0.00 70 1017.6
20260901113030 83 104 12.0 16.0 0.00 0.00 0.00 70 1017.4
20260901112136 84 82 12.0 18.0 0.00 0.00 0.00 71 1017.5
20260901111530 83 84 12.0 18.0 0.00 0.00 0.00 70 1017.4
20260901111129 84 86 13.0 18.0 0.00 0.00 0.00 71 1017.5
20260901110127 84 85 12.0 18.0 0.00 0.00 0.00 70 1017.5
20260901110026 83 83 11.0 17.0 0.00 0.00 0.00 71 1017.4
20260901105156 84 97 12.0 17.0 0.00 0.00 0.00 71 1017.4
20260901104520 83 94 11.0 18.0 0.00 0.00 0.00 71 1017.4
20260901104131 84 86 10.0 18.0 0.00 0.00 0.00 70 1017.5
20260901103130 84 82 10.0 14.0 0.00 0.00 0.00 70 1017.5
20260901103018 84 88 10.0 17.0 0.00 0.00 0.00 72 1017.5
20260901102131 84 105 8.0 15.0 0.00 0.00 0.00 71 1017.5
20260901101534 83 93 8.0 16.0 0.00 0.00 0.00 70 1017.6
20260901101133 84 72 8.0 16.0 0.00 0.00 0.00 72 1017.6
20260901100143 84 85 9.0 13.0 0.00 0.00 0.00 70 1017.7
20260901100040 84 88 10.0 13.0 0.00 0.00 0.00 69 1017.8
20260901095130 84 75 9.0 14.0 0.00 0.00 0.00 72 1017.7
20260901094531 83 77 12.0 15.0 0.00 0.00 0.00 71 1017.8
20260901094134 84 91 10.0 15.0 0.00 0.00 0.00 71 1017.8
20260901093137 84 86 7.0 13.0 0.00 0.00 0.00 69 1017.9
20260901093028 83 58 9.0 13.0 0.00 0.00 0.00 68 1017.9
20260901092214 84 75 7.0 15.0 0.00 0.00 0.00 69 1017.8
20260901091526 83 44 5.0 12.0 0.00 0.00 0.00 70 1017.8
20260901091141 84 122 10.0 12.0 0.00 0.00 0.00 70 1017.7
20260901090141 84 107 8.0 11.0 0.00 0.00 0.00 69 1017.7
20260901090022 84 89 6.0 11.0 0.00 0.00 0.00 69 1017.6
20260901085124 85 72 9.0 11.0 0.00 0.00 0.00 66 1017.7
20260901084536 86 82 0.0 4.0 0.00 0.00 0.00 62 1017.6
20260901084152 86 195 2.0 4.0 0.00 0.00 0.00 62 1017.7
20260901083132 86 176 1.0 7.0 0.00 0.00 0.00 62 1017.6
20260901083005 85 165 1.0 7.0 0.00 0.00 0.00 62 1017.5
20260901082153 85 139 0.0 4.0 0.00 0.00 0.00 63 1017.6
20260901081506 83 41 2.0 5.0 0.00 0.00 0.00 63 1017.5
20260901081125 84 39 2.0 5.0 0.00 0.00 0.00 65 1017.5
20260901080136 85 30 1.0 4.0 0.00 0.00 0.00 64 1017.5
20260901080006 84 37 2.0 4.0 0.00 0.00 0.00 63 1017.4
20260901075126 83 301 0.0 2.0 0.00 0.00 0.00 64 1017.4
20260901074508 82 280 0.0 3.0 0.00 0.00 0.00 64 1017.3
20260901074132 82 299 1.0 3.0 0.00 0.00 0.00 65 1017.4
20260901073140 82 13 1.0 2.0 0.00 0.00 0.00 64 1017.4
20260901073012 82 10 0.0 2.0 0.00 0.00 0.00 65 1017.2
20260901072124 81 313 0.0 1.0 0.00 0.00 0.00 68 1017.3
20260901071504 80 313 0.0 3.0 0.00 0.00 0.00 69 1017.2
20260901071139 79 278 0.0 4.0 0.00 0.00 0.00 70 1017.3
20260901070139 79 257 2.0 4.0 0.00 0.00 0.00 71 1017.2
20260901070006 78 274 2.0 4.0 0.00 0.00 0.00 69 1017.1
20260901065152 77 267 2.0 4.0 0.00 0.00 0.00 71 1017.1
20260901064510 76 259 3.0 5.0 0.00 0.00 0.00 71 1017.1
20260901064147 77 261 3.0 5.0 0.00 0.00 0.00 71 1017.2
20260901063129 76 278 1.0 4.0 0.00 0.00 0.00 74 1017.1
20260901063011 75 263 1.0 4.0 0.00 0.00 0.00 74 1017.1
20260901062130 74 258 2.0 4.0 0.00 0.00 0.00 75 1017.2
20260901061504 73 244 2.0 4.0 0.00 0.00 0.00 75 1017.1
20260901061142 74 260 3.0 4.0 0.00 0.00 0.00 75 1017.2
20260901060157 73 226 0.0 2.0 0.00 0.00 0.00 76 1017.1
20260901060010 72 226 0.0 2.0 0.00 0.00 0.00 76 1017.1
20260901055132 72 250 0.0 2.0 0.00 0.00 0.00 77 1017.0
20260901054524 71 270 0.0 2.0 0.00 0.00 0.00 77 1016.9
20260901054155 72 259 2.0 2.0 0.00 0.00 0.00 77 1017.1
20260901053137 71 233 0.0 0.0 0.00 0.00 0.00 78 1016.9
20260901053010 70 233 0.0 0.0 0.00 0.00 0.00 77 1016.8
20260901052144 70 233 0.0 1.0 0.00 0.00 0.00 77 1016.8
20260901051507 69 233 0.0 1.0 0.00 0.00 0.00 77 1016.6
20260901051126 70 233 0.0 1.0 0.00 0.00 0.00 77 1016.7
20260901050131 70 241 0.0 1.0 0.00 0.00 0.00 77 1016.6
20260901050013 69 241 0.0 1.0 0.00 0.00 0.00 77 1016.4
20260901045136 70 39 0.0 0.0 0.00 0.00 0.00 77 1016.5
20260901044514 69 39 0.0 0.0 0.00 0.00 0.00 76 1016.3
20260901044144 71 39 0.0 1.0 0.00 0.00 0.00 76 1016.5
20260901043137 71 32 1.0 3.0 0.00 0.00 0.00 76 1016.4
20260901043011 70 32 0.0 3.0 0.00 0.00 0.00 76 1016.3
20260901042155 71 214 1.0 2.0 0.00 0.00 0.00 75 1016.3
20260901041512 70 201 1.0 1.0 0.00 0.00 0.00 75 1016.1
20260901041125 71 137 0.0 0.0 0.00 0.00 0.00 75 1016.3
20260901040127 72 206 0.0 2.0 0.00 0.00 0.00 74 1016.2
20260901040012 71 206 0.0 2.0 0.00 0.00 0.00 73 1016.1
20260901035142 72 220 1.0 2.0 0.00 0.00 0.00 73 1016.1
20260901034520 72 229 0.0 1.0 0.00 0.00 0.00 72 1015.9
20260901034137 72 229 0.0 2.0 0.00 0.00 0.00 73 1016.1
20260901033126 72 232 0.0 0.0 0.00 0.00 0.00 73 1015.9
20260901033016 71 242 0.0 0.0 0.00 0.00 0.00 73 1015.8
20260901032156 72 256 0.0 0.0 0.00 0.00 0.00 73 1015.9
20260901031522 71 271 0.0 0.0 0.00 0.00 0.00 74 1015.8
20260901031143 71 271 0.0 2.0 0.00 0.00 0.00 75 1015.9
20260901030138 72 222 2.0 3.0 0.00 0.00 0.00 74 1015.7
20260901030016 71 227 2.0 3.0 0.00 0.00 0.00 73 1015.6
20260901025152 71 247 2.0 4.0 0.00 0.00 0.00 75 1015.7
20260901024517 71 231 2.0 4.0 0.00 0.00 0.00 74 1015.6
20260901024133 72 240 3.0 4.0 0.00 0.00 0.00 74 1015.7
20260901023023 70 281 2.0 3.0 0.00 0.00 0.00 75 1015.7
20260901022135 71 256 3.0 3.0 0.00 0.00 0.00 74 1015.7
20260901021518 71 252 0.0 3.0 0.00 0.00 0.00 74 1015.7
20260901021146 72 249 0.0 3.0 0.00 0.00 0.00 73 1015.6
20260901020141 72 227 0.0 1.0 0.00 0.00 0.00 73 1015.6
20260901020021 71 227 0.0 1.0 0.00 0.00 0.00 73 1015.6
20260901015126 72 203 0.0 2.0 0.00 0.00 0.00 73 1015.6
20260901014518 72 219 0.0 3.0 0.00 0.00 0.00 72 1015.6
20260901014135 72 238 2.0 3.0 0.00 0.00 0.00 72 1015.6
20260901013147 72 240 0.0 1.0 0.00 0.00 0.00 72 1015.5
20260901013034 72 231 1.0 1.0 0.00 0.00 0.00 71 1015.6
20260901012139 73 140 0.0 1.0 0.00 0.00 0.00 71 1015.5
20260901011534 73 232 0.0 1.0 0.00 0.00 0.00 69 1015.5
20260901011126 73 233 0.0 1.0 0.00 0.00 0.00 70 1015.5
20260901010130 73 225 0.0 0.0 0.00 0.00 0.00 69 1015.3
20260901010024 73 225 0.0 0.0 0.00 0.00 0.00 69 1015.3
20260901005222 74 155 0.0 0.0 0.00 0.00 0.00 69 1015.3
20260901004527 73 148 0.0 2.0 0.00 0.00 0.00 68 1015.2
20260901004129 74 162 0.0 1.0 0.00 0.00 0.00 68 1015.2
20260901003203 74 165 0.0 1.0 0.00 0.00 0.00 69 1015.2
20260901003003 73 169 0.0 1.0 0.00 0.00 0.00 68 1015.1
20260901002126 74 200 0.0 1.0 0.00 0.00 0.00 69 1015.2
20260901001507 73 215 0.0 1.0 0.00 0.00 0.00 68 1015.2
20260901001133 74 215 0.0 1.0 0.00 0.00 0.00 68 1015.1
20260901000130 75 158 0.0 1.0 0.00 0.00 0.00 67 1015.1
20260901000018 75 158 0.0 1.0 0.00 0.00 0.00 66 1015.0
20260831235130 75 158 0.0 2.0 0.00 0.00 0.00 66 1015.0
20260831234515 75 148 1.0 2.0 0.00 0.00 0.00 66 1015.1
20260831234143 75 102 0.0 1.0 0.00 0.00 0.00 67 1015.1
20260831233128 75 154 0.0 2.0 0.00 0.00 0.00 67 1014.9
20260831233009 74 125 1.0 2.0 0.00 0.00 0.00 67 1014.8
20260831232130 75 101 1.0 1.0 0.00 0.00 0.00 67 1014.8
20260831231507 76 129 0.0 1.0 0.00 0.00 0.00 64 1014.6
20260831231128 76 134 1.0 2.0 0.00 0.00 0.00 65 1014.8
20260831230130 76 158 0.0 2.0 0.00 0.00 0.00 65 1014.7
20260831230012 75 144 0.0 2.0 0.00 0.00 0.00 65 1014.5
20260831225202 76 153 0.0 1.0 0.00 0.00 0.00 65 1014.6
20260831224504 76 148 0.0 1.0 0.00 0.00 0.00 65 1014.5
20260831224129 76 171 0.0 1.0 0.00 0.00 0.00 65 1014.5
20260831223131 77 167 0.0 1.0 0.00 0.00 0.00 64 1014.5
20260831223024 76 166 0.0 1.0 0.00 0.00 0.00 64 1014.4
20260831222137 77 155 0.0 1.0 0.00 0.00 0.00 64 1014.5
20260831221517 77 142 0.0 1.0 0.00 0.00 0.00 63 1014.4
20260831220135 78 173 1.0 2.0 0.00 0.00 0.00 63 1014.4
20260831220013 77 158 1.0 2.0 0.00 0.00 0.00 63 1014.3
20260831215139 78 139 0.0 2.0 0.00 0.00 0.00 63 1014.4
20260831214517 77 115 1.0 3.0 0.00 0.00 0.00 63 1014.2
20260831214131 78 162 1.0 3.0 0.00 0.00 0.00 64 1014.3
20260831213132 78 164 1.0 2.0 0.00 0.00 0.00 64 1014.2
20260831213004 77 136 0.0 2.0 0.00 0.00 0.00 63 1014.2
20260831212136 78 157 0.0 1.0 0.00 0.00 0.00 64 1014.2
20260831211511 77 146 0.0 2.0 0.00 0.00 0.00 63 1014.0
20260831211137 78 158 1.0 2.0 0.00 0.00 0.00 64 1014.1
20260831210150 78 153 0.0 2.0 0.00 0.00 0.00 63 1014.1
20260831210023 78 124 0.0 2.0 0.00 0.00 0.00 63 1013.9
20260831205129 78 152 1.0 3.0 0.00 0.00 0.00 64 1013.8
20260831204524 77 135 1.0 3.0 0.00 0.00 0.00 65 1013.6
20260831204132 78 127 0.0 3.0 0.00 0.00 0.00 65 1013.8